Orbital Elements at Epoch 2459200.5 (2020-Dec-17.0) TDB
Reference: JPL 25 (heliocentric ecliptic J2000)
Element | Value | Uncertainty (1-sigma) | Units |
e | .2729515739008048 | 3.6107e-08 | |
a | 2.387470764586524 | 8.3581e-09 | au |
q | 1.735806861750475 | 8.8743e-08 | au |
i | 11.4157164661602 | 4.933e-06 | deg |
node | 224.0300308707484 | 1.4107e-05 | deg |
peri | 40.24889639306929 | 1.7907e-05 | deg |
M | 38.49168424382923 | 7.8638e-06 | deg |
tp | 2459056.431201616344 (2020-Jul-25.93120162) | 2.9455e-05 | TDB |
period | 1347.427851937416 3.69 | 7.0757e-06 1.937e-08 | d yr |
n | .2671757151838367 | 1.403e-09 | deg/d |
Q | 3.039134667422574 | 1.064e-08 | au |
|
| | Orbit Determination Parameters
Additional Information
|